Regional Weather Roundup
Issued by NWS

Home | Current Version | Previous Version | Text Only | Print | Product List | Glossary Off
Versions: 1 2 3 4 5 6 7 8 9 10 11 12 13 14 15 16 17 18 19 20 21 22 23 24 25 26 27 28 29 30 31 32 33 34 35 36 37 38 39 40 41 42 43 44 45 46 47 48 49 50

000
ASUS44 KMEG 241610
RWRTN
TENNESSEE HOURLY STATE WEATHER ROUNDUP
NATIONAL WEATHER SERVICE MEMPHIS TN
1100 AM CDT FRI OCT 24 2014

TNZ002-004-019-021-049-052-054-088>092-241700-
WEST TENNESSEE

CITY           SKY/WX    TMP DP  RH WIND       PRES   REMARKS
MEMPHIS INTL   MOSUNNY   65  45  48 NW6       30.16R
NWS MEMPHIS      N/A     62 N/A N/A MISG        N/A
JACKSON        SUNNY     62  46  55 N5        30.15S
DYERSBURG      SUNNY     61  43  51 CALM      30.16F
UNION CITY     SUNNY     57  48  72 NW3       30.13F
PARIS          MOSUNNY   59  45  58 NW6       30.15S
HUNTINGDON     MOSUNNY   61  43  51 NW7       30.15R
LEXINGTON      SUNNY     61  46  59 CALM      30.13F
SAVANNAH       SUNNY     61  48  63 CALM      30.14F
$$

TNZ008-025-027-028-033-062-065-066-241700-
NORTH MIDDLE TENNESSEE

CITY           SKY/WX    TMP DP  RH WIND       PRES   REMARKS
NASHVILLE      MOSUNNY   63  44  50 N6        30.15S
CLARKSVILLE    SUNNY     62  46  55 NW8       30.14S
SMYRNA         SUNNY     62  46  55 VRB3      30.15S
COOKEVILLE     SUNNY     61  46  59 CALM      30.12F
CROSSVILLE     SUNNY     59  38  45 CALM      30.13S
$$

TNZ061-075-076-078-094-096-097-241700-
SOUTH MIDDLE TENNESSEE

CITY           SKY/WX    TMP DP  RH WIND       PRES   REMARKS
FAYETTEVILLE   SUNNY     57  43  58 NE7       30.13R
TULLAHOMA      SUNNY     61  43  51 NE5       30.13S
WINCHESTER     SUNNY     59  46  63 CALM      30.12F
MCMINNVILLE    SUNNY     61  48  63 CALM      30.13S
COLUMBIA         N/A     63  52  67 N3        30.12F
SHELBYVILLE    SUNNY     63  48  59 VRB3      30.14R
$$

TNZ017-018-042-046-047-241700-
NORTHEAST TENNESSEE

CITY           SKY/WX    TMP DP  RH WIND       PRES   REMARKS
TRI CITIES     CLOUDY    51  44  77 CALM      30.12F
ELIZABETHTON   SUNNY     54  39  58 CALM      30.10F
$$

TNZ012-013-036-069-073-074-241700-
CENTRAL EAST TENNESSEE

CITY           SKY/WX    TMP DP  RH WIND       PRES   REMARKS
KNOXVILLE      NOT AVBL
OAK RIDGE      MOSUNNY   59  45  59 SE5       30.13F
GATLINBURG     SUNNY     57  45  62 CALM      30.10F
MORRISTOWN     SUNNY     54  43  66 VRB3      30.12S
$$

TNZ083-085-099-241700-
SOUTHEAST TENNESSEE

CITY           SKY/WX    TMP DP  RH WIND       PRES   REMARKS
CHATTANOOGA    MOSUNNY   60  46  59 NE6       30.12F
$$

SKY/WX REPORTED AS FAIR MEANS FEW OR NO CLOUDS BELOW
12 THOUSAND FEET.




USA.gov is the U.S. government's official web portal to all federal, state and local government web resources and services.